Time,TemperatureF,DewpointF,PressureIn,WindDirection,WindDirectionDegrees,WindSpeedMPH,WindSpeedGustMPH,Humidity,HourlyPrecipIn,Conditions,Clouds,dailyrainin,SoftwareType,DateUTC
2012-04-24 07:05:00,37.7,27.4,29.94,SW,225,0.0,0.0,66,0.00,,---,0.00,VWS V14.01,2012-04-24 13:05:00,
2012-04-24 07:16:00,38.1,27.8,29.94,SW,232,0.0,0.0,66,0.00,,---,0.00,VWS V14.01,2012-04-24 13:16:00,
2012-04-24 07:21:00,39.1,28.3,29.93,SW,232,0.0,0.0,65,0.00,,---,0.00,VWS V14.01,2012-04-24 13:21:00,
2012-04-24 07:26:00,40.2,28.6,29.92,SW,232,0.0,0.0,63,0.00,,---,0.00,VWS V14.01,2012-04-24 13:26:00,
2012-04-24 07:31:00,40.8,28.8,29.90,SW,232,0.0,0.0,62,0.00,,---,0.00,VWS V14.01,2012-04-24 13:31:00,
2012-04-24 07:36:00,41.8,29.4,29.90,SW,232,0.0,2.0,61,0.00,,---,0.00,VWS V14.01,2012-04-24 13:36:00,
2012-04-24 07:41:00,42.7,29.8,29.89,SW,232,0.0,0.0,60,0.00,,---,0.00,VWS V14.01,2012-04-24 13:41:00,
2012-04-24 07:46:00,43.6,30.2,29.89,SW,232,1.0,2.0,59,0.00,,---,0.00,VWS V14.01,2012-04-24 13:46:00,
2012-04-24 07:51:00,44.6,31.2,29.87,SW,232,2.0,2.0,59,0.00,,---,0.00,VWS V14.01,2012-04-24 13:51:00,
2012-04-24 07:56:00,45.6,32.1,29.86,SW,232,0.0,0.0,59,0.00,,---,0.00,VWS V14.01,2012-04-24 13:56:00,
2012-04-24 08:02:00,46.7,33.2,29.85,SW,232,1.0,1.0,59,0.00,,---,0.00,VWS V14.01,2012-04-24 14:02:00,
2012-04-24 08:07:00,48.0,33.1,29.84,SW,232,0.0,1.0,56,0.00,,---,0.00,VWS V14.01,2012-04-24 14:07:00,
2012-04-24 08:12:00,49.2,34.2,29.84,SW,232,0.0,0.0,56,0.00,,---,0.00,VWS V14.01,2012-04-24 14:12:00,
2012-04-24 08:17:00,50.8,34.8,29.82,SW,232,0.0,0.0,54,0.00,,---,0.00,VWS V14.01,2012-04-24 14:17:00,
2012-04-24 08:22:00,52.0,34.9,29.81,SW,232,0.0,0.0,52,0.00,,---,0.00,VWS V14.01,2012-04-24 14:22:00,
2012-04-24 08:27:00,53.5,35.3,29.81,SW,232,0.0,0.0,50,0.00,,---,0.00,VWS V14.01,2012-04-24 14:27:00,
2012-04-24 08:32:00,54.5,35.2,29.80,SW,232,0.0,0.0,48,0.00,,---,0.00,VWS V14.01,2012-04-24 14:32:00,
2012-04-24 08:37:00,55.9,36.0,29.80,SW,232,0.0,0.0,47,0.00,,---,0.00,VWS V14.01,2012-04-24 14:37:00,
2012-04-24 08:42:00,57.2,36.1,29.77,SW,232,0.0,0.0,45,0.00,,---,0.00,VWS V14.01,2012-04-24 14:42:00,
2012-04-24 08:47:00,58.5,36.7,29.75,SW,232,0.0,2.0,44,0.00,,---,0.00,VWS V14.01,2012-04-24 14:47:00,
2012-04-24 08:48:00,59.0,36.6,29.76,SW,232,0.0,2.0,43,0.00,,---,0.00,VWS V14.01,2012-04-24 14:48:00,
2012-04-24 08:53:00,59.2,36.1,29.76,SW,232,0.0,0.0,42,0.00,,---,0.00,VWS V14.01,2012-04-24 14:53:00,
2012-04-24 08:58:00,60.7,36.3,29.74,SW,232,0.0,0.0,40,0.00,,---,0.00,VWS V14.01,2012-04-24 14:58:00,
2012-04-24 09:03:00,61.9,36.7,29.77,SW,232,0.0,0.0,39,0.00,,---,0.00,VWS V14.01,2012-04-24 15:03:00,
2012-04-24 09:08:00,63.4,36.7,29.75,SW,232,0.0,0.0,37,0.00,,---,0.00,VWS V14.01,2012-04-24 15:08:00,
2012-04-24 09:13:00,64.1,36.6,29.75,SW,232,0.0,1.0,36,0.00,,---,0.00,VWS V14.01,2012-04-24 15:13:00,
2012-04-24 09:18:00,65.2,36.2,29.74,SW,232,0.0,2.0,34,0.00,,---,0.00,VWS V14.01,2012-04-24 15:18:00,
2012-04-24 09:23:00,65.9,35.2,29.74,SW,232,0.0,0.0,32,0.00,,---,0.00,VWS V14.01,2012-04-24 15:23:00,
2012-04-24 09:28:00,66.4,34.0,29.72,SW,232,0.0,1.0,30,0.00,,---,0.00,VWS V14.01,2012-04-24 15:28:00,
2012-04-24 09:33:00,66.8,31.8,29.73,SW,232,0.0,0.0,27,0.00,,---,0.00,VWS V14.01,2012-04-24 15:33:00,
2012-04-24 09:38:00,67.3,33.1,29.72,SW,232,0.0,1.0,28,0.00,,---,0.00,VWS V14.01,2012-04-24 15:38:00,
2012-04-24 09:43:00,67.6,30.6,29.73,SW,232,1.0,3.0,25,0.00,,---,0.00,VWS V14.01,2012-04-24 15:43:00,
2012-04-24 09:48:00,67.2,30.2,29.73,SW,232,0.0,1.0,25,0.00,,---,0.00,VWS V14.01,2012-04-24 15:48:00,
2012-04-24 09:53:00,67.6,31.5,29.73,SW,232,1.0,4.0,26,0.00,,---,0.00,VWS V14.01,2012-04-24 15:53:00,
2012-04-24 09:58:00,67.7,31.6,29.73,SW,232,2.0,2.0,26,0.00,,---,0.00,VWS V14.01,2012-04-24 15:58:00,
2012-04-24 10:03:00,67.8,32.6,29.72,SW,232,1.0,2.0,27,0.00,,---,0.00,VWS V14.01,2012-04-24 16:03:00,
2012-04-24 10:08:00,68.0,31.9,29.73,SW,232,1.0,4.0,26,0.00,,---,0.00,VWS V14.01,2012-04-24 16:08:00,
2012-04-24 10:13:00,67.7,30.6,29.73,SW,232,4.0,6.0,25,0.00,,---,0.00,VWS V14.01,2012-04-24 16:13:00,
2012-04-24 10:18:00,67.9,30.8,29.73,SW,232,4.0,9.0,25,0.00,,---,0.00,VWS V14.01,2012-04-24 16:18:00,
2012-04-24 10:24:00,68.5,30.3,29.71,SW,232,8.0,10.0,24,0.00,,---,0.00,VWS V14.01,2012-04-24 16:24:00,
2012-04-24 10:29:00,69.0,29.7,29.71,SW,234,7.0,12.0,23,0.00,,---,0.00,VWS V14.01,2012-04-24 16:29:00,
2012-04-24 10:34:00,69.4,30.0,29.71,WSW,252,2.0,14.0,23,0.00,,---,0.00,VWS V14.01,2012-04-24 16:34:00,
2012-04-24 10:39:00,69.5,30.1,29.71,WSW,252,7.0,11.0,23,0.00,,---,0.00,VWS V14.01,2012-04-24 16:39:00,
2012-04-24 10:44:00,69.4,26.6,29.71,West,281,6.0,13.0,20,0.00,,---,0.00,VWS V14.01,2012-04-24 16:44:00,
2012-04-24 10:49:00,70.1,28.4,29.71,West,275,7.0,16.0,21,0.00,,---,0.00,VWS V14.01,2012-04-24 16:49:00,
2012-04-24 10:52:00,70.7,28.9,29.69,West,273,6.0,12.0,21,0.00,,---,0.00,VWS V14.01,2012-04-24 16:52:00,
2012-04-24 10:57:00,71.0,26.7,29.70,West,264,9.0,14.0,19,0.00,,---,0.00,VWS V14.01,2012-04-24 16:57:00,
2012-04-24 11:02:00,71.3,28.2,29.70,West,278,11.0,15.0,20,0.00,,---,0.00,VWS V14.01,2012-04-24 17:02:00,
2012-04-24 11:07:00,71.2,26.9,29.76,West,271,13.0,14.0,19,0.00,,---,0.00,VWS V14.01,2012-04-24 17:07:00,
2012-04-24 11:12:00,70.8,27.8,29.75,WNW,287,14.0,15.0,20,0.00,,---,0.00,VWS V14.01,2012-04-24 17:12:00,
2012-04-24 11:17:00,71.2,28.1,29.76,West,274,12.0,15.0,20,0.00,,---,0.00,VWS V14.01,2012-04-24 17:17:00,
2012-04-24 11:22:00,71.3,28.2,29.76,West,279,10.0,14.0,20,0.00,,---,0.00,VWS V14.01,2012-04-24 17:22:00,
2012-04-24 11:27:00,71.2,28.1,29.76,WNW,284,10.0,12.0,20,0.00,,---,0.00,VWS V14.01,2012-04-24 17:27:00,
2012-04-24 11:32:00,71.6,28.4,29.74,West,280,10.0,14.0,20,0.00,,---,0.00,VWS V14.01,2012-04-24 17:32:00,
2012-04-24 11:37:00,71.0,26.7,29.76,WNW,286,8.0,12.0,19,0.00,,---,0.00,VWS V14.01,2012-04-24 17:37:00,
2012-04-24 11:42:00,71.0,28.0,29.75,WNW,282,14.0,14.0,20,0.00,,---,0.00,VWS V14.01,2012-04-24 17:42:00,
2012-04-24 11:47:00,71.3,28.2,29.75,WNW,286,14.0,16.0,20,0.00,,---,0.00,VWS V14.01,2012-04-24 17:47:00,
2012-04-24 11:52:00,71.0,28.0,29.75,WNW,286,7.0,10.0,20,0.00,,---,0.00,VWS V14.01,2012-04-24 17:52:00,
2012-04-24 11:57:00,71.2,28.1,29.75,WNW,286,7.0,8.0,20,0.00,,---,0.00,VWS V14.01,2012-04-24 17:57:00,
2012-04-24 12:03:00,71.9,28.7,29.74,WNW,292,12.0,14.0,20,0.00,,---,0.00,VWS V14.01,2012-04-24 18:03:00,
2012-04-24 12:08:00,71.3,27.0,29.75,WNW,294,5.0,9.0,19,0.00,,---,0.00,VWS V14.01,2012-04-24 18:08:00,
2012-04-24 12:09:00,71.3,27.0,29.74,WNW,294,6.0,9.0,19,0.00,,---,0.00,VWS V14.01,2012-04-24 18:09:00,
2012-04-24 12:14:00,72.2,28.9,29.74,WNW,298,11.0,13.0,20,0.00,,---,0.00,VWS V14.01,2012-04-24 18:14:00,
2012-04-24 12:19:00,72.5,27.9,29.72,WNW,284,13.0,13.0,19,0.00,,---,0.00,VWS V14.01,2012-04-24 18:19:00,
2012-04-24 12:24:00,71.8,27.4,29.74,WNW,287,10.0,15.0,19,0.00,,---,0.00,VWS V14.01,2012-04-24 18:24:00,
2012-04-24 12:29:00,72.1,28.9,29.73,WNW,296,10.0,18.0,20,0.00,,---,0.00,VWS V14.01,2012-04-24 18:29:00,
2012-04-24 12:34:00,72.2,27.7,29.73,WNW,286,9.0,21.0,19,0.00,,---,0.00,VWS V14.01,2012-04-24 18:34:00,
2012-04-24 12:39:00,72.1,27.6,29.73,WNW,284,6.0,14.0,19,0.00,,---,0.00,VWS V14.01,2012-04-24 18:39:00,
2012-04-24 12:44:00,72.4,29.1,29.72,WNW,285,13.0,13.0,20,0.00,,---,0.00,VWS V14.01,2012-04-24 18:44:00,
2012-04-24 12:49:00,72.7,28.1,29.70,WNW,282,7.0,13.0,19,0.00,,---,0.00,VWS V14.01,2012-04-24 18:49:00,
2012-04-24 12:54:00,72.5,29.2,29.69,West,277,12.0,13.0,20,0.00,,---,0.00,VWS V14.01,2012-04-24 18:54:00,
2012-04-24 12:59:00,72.6,28.0,29.70,West,277,1.0,13.0,19,0.00,,---,0.00,VWS V14.01,2012-04-24 18:59:00,
2012-04-24 13:05:00,72.3,27.8,29.75,WNW,284,7.0,18.0,19,0.00,,---,0.00,VWS V14.01,2012-04-24 19:05:00,
2012-04-24 13:10:00,72.2,27.7,29.74,WNW,294,7.0,18.0,19,0.00,,---,0.00,VWS V14.01,2012-04-24 19:10:00,
2012-04-24 13:15:00,71.5,28.4,29.74,WNW,295,10.0,18.0,20,0.00,,---,0.00,VWS V14.01,2012-04-24 19:15:00,
2012-04-24 13:20:00,71.4,29.5,29.74,WNW,284,12.0,15.0,21,0.00,,---,0.00,VWS V14.01,2012-04-24 19:20:00,
2012-04-24 13:25:00,71.1,30.4,29.74,West,259,10.0,19.0,22,0.00,,---,0.00,VWS V14.01,2012-04-24 19:25:00,
2012-04-24 13:30:00,70.5,29.9,29.74,West,260,13.0,18.0,22,0.00,,---,0.00,VWS V14.01,2012-04-24 19:30:00,
2012-04-24 13:35:00,70.7,28.9,29.73,West,263,12.0,18.0,21,0.00,,---,0.00,VWS V14.01,2012-04-24 19:35:00,
2012-04-24 13:40:00,70.9,29.0,29.73,West,259,13.0,16.0,21,0.00,,---,0.00,VWS V14.01,2012-04-24 19:40:00,
2012-04-24 13:41:00,70.9,29.0,29.73,West,259,15.0,16.0,21,0.00,,---,0.00,VWS V14.01,2012-04-24 19:41:00,
2012-04-24 13:46:00,71.4,29.5,29.73,West,259,13.0,16.0,21,0.00,,---,0.00,VWS V14.01,2012-04-24 19:46:00,
2012-04-24 13:51:00,71.3,29.4,29.73,West,259,8.0,16.0,21,0.00,,---,0.00,VWS V14.01,2012-04-24 19:51:00,
2012-04-24 13:56:00,71.2,30.4,29.73,WSW,257,11.0,14.0,22,0.00,,---,0.00,VWS V14.01,2012-04-24 19:56:00,
2012-04-24 14:01:00,71.9,31.0,29.73,West,259,6.0,13.0,22,0.00,,---,0.00,VWS V14.01,2012-04-24 20:01:00,
2012-04-24 14:06:00,71.7,28.5,29.73,West,259,10.0,12.0,20,0.00,,---,0.00,VWS V14.01,2012-04-24 20:06:00,
2012-04-24 14:11:00,71.2,29.3,29.74,West,259,5.0,12.0,21,0.00,,---,0.00,VWS V14.01,2012-04-24 20:11:00,
2012-04-24 14:16:00,70.7,28.9,29.74,West,263,5.0,13.0,21,0.00,,---,0.00,VWS V14.01,2012-04-24 20:16:00,
2012-04-24 14:21:00,70.7,28.9,29.74,West,263,5.0,10.0,21,0.00,,---,0.00,VWS V14.01,2012-04-24 20:21:00,
2012-04-24 14:26:00,71.0,30.3,29.73,West,260,9.0,11.0,22,0.00,,---,0.00,VWS V14.01,2012-04-24 20:26:00,
2012-04-24 14:31:00,70.8,30.1,29.73,West,261,11.0,16.0,22,0.00,,---,0.00,VWS V14.01,2012-04-24 20:31:00,
2012-04-24 14:36:00,70.7,28.9,29.74,West,261,6.0,19.0,21,0.00,,---,0.00,VWS V14.01,2012-04-24 20:36:00,
2012-04-24 14:41:00,70.8,29.0,29.73,West,260,8.0,15.0,21,0.00,,---,0.00,VWS V14.01,2012-04-24 20:41:00,
2012-04-24 14:46:00,70.7,30.0,29.74,West,259,6.0,12.0,22,0.00,,---,0.00,VWS V14.01,2012-04-24 20:46:00,
2012-04-24 14:51:00,70.8,30.1,29.73,WSW,256,7.0,12.0,22,0.00,,---,0.00,VWS V14.01,2012-04-24 20:51:00,
2012-04-24 14:56:00,70.8,29.0,29.73,WSW,252,7.0,20.0,21,0.00,,---,0.00,VWS V14.01,2012-04-24 20:56:00,
2012-04-24 15:01:00,70.6,28.8,29.73,WSW,255,14.0,23.0,21,0.00,,---,0.00,VWS V14.01,2012-04-24 21:01:00,
2012-04-24 15:06:00,70.8,30.1,29.73,WSW,253,8.0,18.0,22,0.00,,---,0.00,VWS V14.01,2012-04-24 21:06:00,
2012-04-24 15:11:00,70.9,27.9,29.73,West,259,3.0,25.0,20,0.00,,---,0.00,VWS V14.01,2012-04-24 21:11:00,
2012-04-24 15:16:00,72.4,29.1,29.72,West,263,7.0,16.0,20,0.00,,---,0.00,VWS V14.01,2012-04-24 21:16:00,
2012-04-24 15:21:00,71.7,29.7,29.73,WNW,300,12.0,22.0,21,0.00,,---,0.00,VWS V14.01,2012-04-24 21:21:00,
2012-04-24 15:26:00,69.3,29.9,29.74,WNW,295,21.0,27.0,23,0.00,,---,0.00,VWS V14.01,2012-04-24 21:26:00,
2012-04-24 15:31:00,68.1,30.0,29.76,WNW,293,13.0,26.0,24,0.00,,---,0.00,VWS V14.01,2012-04-24 21:31:00,
2012-04-24 15:36:00,67.7,30.6,29.76,WSW,240,20.0,29.0,25,0.00,,---,0.00,VWS V14.01,2012-04-24 21:36:00,
2012-04-24 15:41:00,68.1,28.9,29.75,West,265,7.0,21.0,23,0.00,,---,0.00,VWS V14.01,2012-04-24 21:41:00,
2012-04-24 15:46:00,68.8,27.3,29.74,West,271,6.0,16.0,21,0.00,,---,0.00,VWS V14.01,2012-04-24 21:46:00,
2012-04-24 15:51:00,68.4,31.2,29.74,West,262,13.0,13.0,25,0.00,,---,0.00,VWS V14.01,2012-04-24 21:51:00,
2012-04-24 15:56:00,67.9,29.8,29.75,WSW,237,14.0,14.0,24,0.00,,---,0.00,VWS V14.01,2012-04-24 21:56:00,
2012-04-24 16:01:00,68.1,28.9,29.76,WSW,253,8.0,11.0,23,0.00,,---,0.00,VWS V14.01,2012-04-24 22:01:00,
2012-04-24 16:06:00,68.4,28.1,29.78,SW,227,10.0,10.0,22,0.00,,---,0.00,VWS V14.01,2012-04-24 22:06:00,
2012-04-24 16:11:00,68.3,28.0,29.78,WSW,255,5.0,5.0,22,0.00,,---,0.00,VWS V14.01,2012-04-24 22:11:00,
2012-04-24 16:16:00,68.5,29.3,29.76,SW,234,7.0,8.0,23,0.00,,---,0.00,VWS V14.01,2012-04-24 22:16:00,
2012-04-24 16:21:00,68.7,28.4,29.76,WSW,252,9.0,9.0,22,0.00,,---,0.00,VWS V14.01,2012-04-24 22:21:00,
2012-04-24 16:26:00,68.9,28.5,29.76,West,261,10.0,12.0,22,0.00,,---,0.00,VWS V14.01,2012-04-24 22:26:00,
2012-04-24 16:31:00,69.5,29.0,29.76,WSW,248,8.0,9.0,22,0.00,,---,0.00,VWS V14.01,2012-04-24 22:31:00,
2012-04-24 16:36:00,70.3,29.7,29.76,South,184,12.0,20.0,22,0.00,,---,0.00,VWS V14.01,2012-04-24 22:36:00,
2012-04-24 16:41:00,70.4,29.8,29.76,SW,223,12.0,12.0,22,0.00,,---,0.00,VWS V14.01,2012-04-24 22:41:00,
2012-04-24 16:46:00,70.5,31.0,29.75,SW,230,14.0,14.0,23,0.00,,---,0.00,VWS V14.01,2012-04-24 22:46:00,
2012-04-24 16:52:00,70.8,32.3,29.75,SW,226,23.0,23.0,24,0.00,,---,0.00,VWS V14.01,2012-04-24 22:52:00,
2012-04-24 16:57:00,69.3,32.0,29.76,West,260,15.0,21.0,25,0.00,,---,0.00,VWS V14.01,2012-04-24 22:57:00,
2012-04-24 17:02:00,68.7,31.5,29.77,SSW,194,5.0,14.0,25,0.00,,---,0.00,VWS V14.01,2012-04-24 23:02:00,
2012-04-24 17:07:00,67.7,31.6,29.76,WSW,241,15.0,24.0,26,0.00,,---,0.00,VWS V14.01,2012-04-24 23:07:00,
2012-04-24 17:12:00,66.6,30.7,29.78,WSW,240,16.0,20.0,26,0.00,,---,0.00,VWS V14.01,2012-04-24 23:12:00,
2012-04-24 17:17:00,67.0,31.0,29.77,WSW,256,16.0,18.0,26,0.00,,---,0.00,VWS V14.01,2012-04-24 23:17:00,
2012-04-24 17:22:00,68.4,31.2,29.75,SW,223,7.0,15.0,25,0.00,,---,0.00,VWS V14.01,2012-04-24 23:22:00,
2012-04-24 17:27:00,69.2,31.9,29.75,SW,236,11.0,13.0,25,0.00,,---,0.00,VWS V14.01,2012-04-24 23:27:00,
2012-04-24 17:32:00,69.5,32.2,29.75,SW,223,5.0,10.0,25,0.00,,---,0.00,VWS V14.01,2012-04-24 23:32:00,
2012-04-24 17:37:00,69.5,31.2,29.73,SSW,204,1.0,8.0,24,0.00,,---,0.00,VWS V14.01,2012-04-24 23:37:00,
2012-04-24 17:42:00,69.6,32.2,29.73,WSW,237,10.0,10.0,25,0.00,,---,0.00,VWS V14.01,2012-04-24 23:42:00,
2012-04-24 17:47:00,69.8,31.4,29.73,SSW,209,8.0,9.0,24,0.00,,---,0.00,VWS V14.01,2012-04-24 23:47:00,
2012-04-24 17:52:00,69.9,31.5,29.73,WSW,246,9.0,12.0,24,0.00,,---,0.00,VWS V14.01,2012-04-24 23:52:00,
2012-04-24 17:57:00,70.1,30.6,29.73,SSW,199,4.0,9.0,23,0.00,,---,0.00,VWS V14.01,2012-04-24 23:57:00,
2012-04-24 18:02:00,70.2,31.8,29.72,SSW,207,6.0,6.0,24,0.00,,---,0.00,VWS V14.01,2012-04-25 00:02:00,
2012-04-24 18:07:00,70.1,30.6,29.72,WSW,246,12.0,13.0,23,0.00,,---,0.00,VWS V14.01,2012-04-25 00:07:00,
2012-04-24 18:12:00,69.7,30.3,29.72,WSW,254,10.0,15.0,23,0.00,,---,0.00,VWS V14.01,2012-04-25 00:12:00,
2012-04-24 18:17:00,69.8,31.4,29.72,West,264,7.0,15.0,24,0.00,,---,0.00,VWS V14.01,2012-04-25 00:17:00,
2012-04-24 18:22:00,69.8,32.4,29.71,WSW,246,11.0,15.0,25,0.00,,---,0.00,VWS V14.01,2012-04-25 00:22:00,
2012-04-24 18:27:00,69.8,31.4,29.71,WSW,250,9.0,9.0,24,0.00,,---,0.00,VWS V14.01,2012-04-25 00:27:00,
2012-04-24 18:32:00,69.1,29.8,29.73,SW,223,6.0,6.0,23,0.00,,---,0.00,VWS V14.01,2012-04-25 00:32:00,
2012-04-24 18:37:00,68.2,30.1,29.72,WSW,254,5.0,9.0,24,0.00,,---,0.00,VWS V14.01,2012-04-25 00:37:00,
2012-04-24 18:42:00,67.2,31.2,29.74,WSW,254,4.0,4.0,26,0.00,,---,0.00,VWS V14.01,2012-04-25 00:42:00,
2012-04-24 18:47:00,67.0,31.0,29.74,SSW,198,5.0,8.0,26,0.00,,---,0.00,VWS V14.01,2012-04-25 00:47:00,
2012-04-24 18:52:00,66.4,29.5,29.73,WSW,240,4.0,18.0,25,0.00,,---,0.00,VWS V14.01,2012-04-25 00:52:00,
2012-04-24 18:57:00,66.5,29.6,29.74,WSW,256,6.0,14.0,25,0.00,,---,0.00,VWS V14.01,2012-04-25 00:57:00,
2012-04-24 19:02:00,66.8,28.9,29.65,SW,218,9.0,10.0,24,0.00,,---,0.00,VWS V14.01,2012-04-25 01:02:00,
2012-04-24 19:07:00,66.6,28.7,29.65,SW,233,4.0,8.0,24,0.00,,---,0.00,VWS V14.01,2012-04-25 01:07:00,
2012-04-24 19:12:00,66.1,29.3,29.67,SW,234,1.0,8.0,25,0.00,,---,0.00,VWS V14.01,2012-04-25 01:12:00,
2012-04-24 19:17:00,65.2,30.4,29.67,SW,223,4.0,7.0,27,0.00,,---,0.00,VWS V14.01,2012-04-25 01:17:00,
2012-04-24 19:22:00,63.6,29.9,29.69,SSW,208,5.0,7.0,28,0.00,,---,0.00,VWS V14.01,2012-04-25 01:22:00,
2012-04-24 19:27:00,62.2,30.4,29.71,SSW,209,7.0,9.0,30,0.00,,---,0.00,VWS V14.01,2012-04-25 01:27:00,
2012-04-24 19:32:00,61.7,30.0,29.71,SSW,209,4.0,7.0,30,0.00,,---,0.00,VWS V14.01,2012-04-25 01:32:00,
2012-04-24 19:38:00,60.8,30.0,29.71,SSW,209,5.0,9.0,31,0.00,,---,0.00,VWS V14.01,2012-04-25 01:38:00,
2012-04-24 19:43:00,59.7,29.8,29.72,SSW,210,1.0,6.0,32,0.00,,---,0.00,VWS V14.01,2012-04-25 01:43:00,
2012-04-24 19:48:00,59.0,29.2,29.72,SSW,210,5.0,6.0,32,0.00,,---,0.00,VWS V14.01,2012-04-25 01:48:00,
2012-04-24 19:53:00,59.0,28.4,29.73,SSW,209,5.0,6.0,31,0.00,,---,0.00,VWS V14.01,2012-04-25 01:53:00,
2012-04-24 19:58:00,59.0,28.4,29.72,SSW,207,1.0,4.0,31,0.00,,---,0.00,VWS V14.01,2012-04-25 01:58:00,
2012-04-24 20:03:00,59.1,28.5,29.62,SSW,208,3.0,6.0,31,0.00,,---,0.00,VWS V14.01,2012-04-25 02:03:00,
2012-04-24 20:08:00,59.4,28.0,29.62,SSW,208,0.0,4.0,30,0.00,,---,0.00,VWS V14.01,2012-04-25 02:08:00,
2012-04-24 20:13:00,59.4,28.0,29.62,SSW,208,0.0,0.0,30,0.00,,---,0.00,VWS V14.01,2012-04-25 02:13:00,
2012-04-24 20:18:00,59.2,27.8,29.62,SSW,208,0.0,2.0,30,0.00,,---,0.00,VWS V14.01,2012-04-25 02:18:00,
2012-04-24 20:23:00,59.0,27.6,29.63,SSW,199,0.0,8.0,30,0.00,,---,0.00,VWS V14.01,2012-04-25 02:23:00,
2012-04-24 20:28:00,59.0,28.4,29.63,SSW,199,0.0,3.0,31,0.00,,---,0.00,VWS V14.01,2012-04-25 02:28:00,
2012-04-24 20:33:00,58.0,28.3,29.64,SSW,200,0.0,2.0,32,0.00,,---,0.00,VWS V14.01,2012-04-25 02:33:00,
2012-04-24 20:38:00,56.9,28.1,29.65,SSW,200,0.0,1.0,33,0.00,,---,0.00,VWS V14.01,2012-04-25 02:38:00,
2012-04-24 20:43:00,55.9,28.0,29.66,SSW,199,0.0,0.0,34,0.00,,---,0.00,VWS V14.01,2012-04-25 02:43:00,
2012-04-24 20:48:00,55.2,27.3,29.67,SSW,200,0.0,1.0,34,0.00,,---,0.00,VWS V14.01,2012-04-25 02:48:00,
2012-04-24 20:53:00,55.0,27.2,29.67,SSW,199,0.0,0.0,34,0.00,,---,0.00,VWS V14.01,2012-04-25 02:53:00,
2012-04-24 20:58:00,55.0,27.2,29.67,SSW,199,1.0,2.0,34,0.00,,---,0.00,VWS V14.01,2012-04-25 02:58:00,
2012-04-24 21:03:00,55.3,26.7,29.63,SSW,199,2.0,2.0,33,0.00,,---,0.00,VWS V14.01,2012-04-25 03:03:00,
2012-04-24 21:08:00,55.5,26.9,29.62,SSW,199,0.0,3.0,33,0.00,,---,0.00,VWS V14.01,2012-04-25 03:08:00,
2012-04-24 21:13:00,55.7,27.1,29.62,SSW,199,2.0,7.0,33,0.00,,---,0.00,VWS V14.01,2012-04-25 03:13:00,
2012-04-24 21:18:00,56.5,27.0,29.61,SSW,199,0.0,4.0,32,0.00,,---,0.00,VWS V14.01,2012-04-25 03:18:00,
2012-04-24 21:23:00,57.6,27.2,29.61,SSW,199,0.0,4.0,31,0.00,,---,0.00,VWS V14.01,2012-04-25 03:23:00,
2012-04-24 21:28:00,58.1,27.6,29.60,SSW,199,0.0,0.0,31,0.00,,---,0.00,VWS V14.01,2012-04-25 03:28:00,
2012-04-24 21:33:00,58.0,27.6,29.60,SSW,200,0.0,0.0,31,0.00,,---,0.00,VWS V14.01,2012-04-25 03:33:00,
2012-04-24 21:38:00,57.7,27.3,29.60,SSW,199,0.0,0.0,31,0.00,,---,0.00,VWS V14.01,2012-04-25 03:38:00,
2012-04-24 21:43:00,57.4,27.0,29.62,SSW,199,0.0,1.0,31,0.00,,---,0.00,VWS V14.01,2012-04-25 03:43:00,
2012-04-24 21:48:00,57.2,26.9,29.62,SSW,199,0.0,0.0,31,0.00,,---,0.00,VWS V14.01,2012-04-25 03:48:00,
2012-04-24 21:53:00,56.9,26.6,29.61,SSW,199,0.0,0.0,31,0.00,,---,0.00,VWS V14.01,2012-04-25 03:53:00,
2012-04-24 21:58:00,56.4,26.9,29.62,SSW,199,0.0,4.0,32,0.00,,---,0.00,VWS V14.01,2012-04-25 03:58:00,
2012-04-24 22:00:00,55.9,28.0,29.61,SSW,199,1.0,5.0,34,0.00,,---,0.00,VWS V14.01,2012-04-25 04:00:00,
2012-04-24 22:01:00,55.4,27.5,29.60,SSW,199,0.0,0.0,34,0.00,,---,0.00,VWS V14.01,2012-04-25 04:01:00,
2012-04-24 22:06:00,54.1,27.8,29.62,SSW,199,0.0,0.0,36,0.00,,---,0.00,VWS V14.01,2012-04-25 04:06:00,
2012-04-24 22:12:00,53.0,27.4,29.62,SSW,199,0.0,0.0,37,0.00,,---,0.00,VWS V14.01,2012-04-25 04:12:00,
2012-04-24 22:17:00,52.3,26.8,29.63,SSW,199,0.0,0.0,37,0.00,,---,0.00,VWS V14.01,2012-04-25 04:17:00,
2012-04-24 22:22:00,51.8,27.0,29.64,SSW,199,3.0,5.0,38,0.00,,---,0.00,VWS V14.01,2012-04-25 04:22:00,
2012-04-24 22:27:00,51.0,26.9,29.64,SSW,199,0.0,0.0,39,0.00,,---,0.00,VWS V14.01,2012-04-25 04:27:00,
2012-04-24 22:32:00,50.3,26.9,29.65,SSW,199,0.0,0.0,40,0.00,,---,0.00,VWS V14.01,2012-04-25 04:32:00,
2012-04-24 22:37:00,49.4,26.7,29.65,SSW,199,0.0,0.0,41,0.00,,---,0.00,VWS V14.01,2012-04-25 04:37:00,
2012-04-24 22:42:00,49.0,26.3,29.64,SSW,199,0.0,2.0,41,0.00,,---,0.00,VWS V14.01,2012-04-25 04:42:00,
2012-04-24 22:47:00,48.9,25.7,29.64,SSW,199,0.0,0.0,40,0.00,,---,0.00,VWS V14.01,2012-04-25 04:47:00,
2012-04-24 22:52:00,49.1,25.8,29.64,SSW,199,0.0,1.0,40,0.00,,---,0.00,VWS V14.01,2012-04-25 04:52:00,
2012-04-24 22:57:00,49.4,26.1,29.64,SSW,199,0.0,0.0,40,0.00,,---,0.00,VWS V14.01,2012-04-25 04:57:00,
2012-04-24 23:02:00,49.9,25.3,29.62,SSW,199,0.0,1.0,38,0.00,,---,0.00,VWS V14.01,2012-04-25 05:02:00,
2012-04-24 23:07:00,49.5,27.4,29.63,SSW,200,0.0,5.0,42,0.00,,---,0.00,VWS V14.01,2012-04-25 05:07:00,
2012-04-24 23:12:00,47.6,26.8,29.64,SSW,200,1.0,5.0,44,0.00,,---,0.00,VWS V14.01,2012-04-25 05:12:00,
2012-04-24 23:17:00,46.6,28.5,29.66,SSW,200,0.0,3.0,49,0.00,,---,0.00,VWS V14.01,2012-04-25 05:17:00,
2012-04-24 23:22:00,45.9,26.8,29.66,SSW,200,0.0,0.0,47,0.00,,---,0.00,VWS V14.01,2012-04-25 05:22:00,
2012-04-24 23:27:00,45.6,26.5,29.66,SSW,199,0.0,0.0,47,0.00,,---,0.00,VWS V14.01,2012-04-25 05:27:00,
2012-04-24 23:32:00,45.4,26.4,29.68,SSW,200,0.0,0.0,47,0.00,,---,0.00,VWS V14.01,2012-04-25 05:32:00,
2012-04-24 23:37:00,45.4,26.9,29.68,SSW,199,0.0,2.0,48,0.00,,---,0.00,VWS V14.01,2012-04-25 05:37:00,
2012-04-24 23:42:00,45.2,27.2,29.68,SSW,200,0.0,0.0,49,0.00,,---,0.00,VWS V14.01,2012-04-25 05:42:00,
2012-04-24 23:47:00,45.0,27.0,29.68,SSW,199,0.0,0.0,49,0.00,,---,0.00,VWS V14.01,2012-04-25 05:47:00,